Location: Hohenfelde
(53.8441°N, 9.6220°E)
Time: 12:13:09
(UTC+00:00)

Cosmos 220 Rocket - Pass Details

Date: 14 July 2020
Orbit: 576 x 616 km, 74.0° (Epoch: 10 August)

Event Time Altitude Azimuth Distance (km) Brightness Sun altitude
Rises 00:52:37 0° 331° (NNW) 2,834 8.1 -12.3°
Reaches altitude 10° 00:54:52 10° 328° (NNW) 1,922 7.1 -12.2°
Maximum altitude 00:59:06 63° 248° (WSW) 655 4.0 -12.0°
Enters shadow 01:02:52 12° 169° (SSE) 1,735 5.9 -11.8°
